| time (UTC) | temp F | wind direction | speed knots | gust knots | rain 1hr in | rain 24hr in | rain mn in | humidity % | barometer mb |
| 20260504231552 | 60 | 0 | 0.0 | 0.0 | 0.00 | 0.02 | 0.02 | 56 | 1006.1 |
| 20260504230053 | 61 | 0 | 0.0 | 0.0 | 0.00 | 0.02 | 0.02 | 55 | 1006.0 |
| 20260504224558 | 62 | 0 | 0.0 | 0.0 | 0.00 | 0.02 | 0.02 | 53 | 1005.8 |
| 20260504223134 | 63 | 0 | 0.0 | 0.9 | 0.00 | 0.02 | 0.02 | 50 | 1005.8 |
| 20260504221554 | 64 | 0 | 0.0 | 0.9 | 0.00 | 0.02 | 0.02 | 51 | 1005.9 |
| 20260504220058 | 64 | 0 | 0.0 | 0.9 | 0.00 | 0.02 | 0.02 | 50 | 1005.9 |
| 20260504214557 | 64 | 178 | 0.0 | 1.7 | 0.00 | 0.02 | 0.02 | 50 | 1006.0 |
| 20260504213102 | 64 | 0 | 0.9 | 2.6 | 0.00 | 0.02 | 0.02 | 51 | 1006.0 |
| 20260504211554 | 64 | 178 | 0.0 | 5.2 | 0.00 | 0.02 | 0.02 | 50 | 1005.9 |
| 20260504210059 | 65 | 178 | 0.9 | 6.1 | 0.00 | 0.02 | 0.02 | 50 | 1005.6 |
| 20260504204554 | 65 | 178 | 0.9 | 7.8 | 0.00 | 0.02 | 0.02 | 49 | 1005.7 |
| 20260504203110 | 66 | 178 | 1.7 | 7.0 | 0.00 | 0.02 | 0.02 | 47 | 1005.7 |
| 20260504201558 | 65 | 178 | 1.7 | 6.1 | 0.00 | 0.02 | 0.02 | 50 | 1005.7 |
| 20260504194552 | 65 | 178 | 0.9 | 5.2 | 0.00 | 0.02 | 0.02 | 52 | 1005.7 |
| 20260504193057 | 64 | 178 | 0.9 | 4.3 | 0.00 | 0.02 | 0.02 | 55 | 1005.9 |
| 20260504191600 | 62 | 178 | 0.0 | 4.3 | 0.00 | 0.02 | 0.02 | 62 | 1005.9 |
| 20260504190055 | 59 | 178 | 0.0 | 6.1 | 0.00 | 0.02 | 0.02 | 69 | 1006.1 |
| 20260504184557 | 58 | 178 | 0.0 | 1.7 | 0.00 | 0.02 | 0.02 | 70 | 1006.2 |
| 20260504183057 | 58 | 178 | 0.0 | 1.7 | 0.00 | 0.02 | 0.02 | 73 | 1006.4 |
| 20260504181600 | 57 | 0 | 0.0 | 4.3 | 0.01 | 0.02 | 0.02 | 75 | 1006.5 |
| 20260504180058 | 56 | 178 | 0.0 | 1.7 | 0.02 | 0.02 | 0.02 | 79 | 1006.5 |
| 20260504174602 | 54 | 0 | 0.0 | 1.7 | 0.02 | 0.02 | 0.02 | 81 | 1006.8 |
| 20260504173053 | 54 | 178 | 0.0 | 4.3 | 0.02 | 0.02 | 0.02 | 81 | 1007.0 |
| 20260504171554 | 56 | 178 | 0.0 | 4.3 | 0.01 | 0.01 | 0.01 | 71 | 1006.6 |
| 20260504150103 | 59 | 178 | 2.6 | 8.7 | 0.00 | 0.07 | 0.00 | 58 | 1006.5 |
| 20260504090104 | 31 | 0 | 0.0 | 0.0 | 0.00 | 0.22 | 0.00 | 89 | 1007.9 |
| 20260504081608 | 31 | 0 | 0.0 | 0.0 | 0.00 | 0.23 | 0.00 | 89 | 1008.0 |
| 20260504044603 | 36 | 178 | 0.0 | 0.0 | 0.00 | 0.24 | 0.00 | 79 | 1007.8 |
| 20260504043059 | 36 | 0 | 0.0 | 0.0 | 0.00 | 0.24 | 0.00 | 79 | 1007.9 |
| 20260504041553 | 37 | 0 | 0.0 | 0.0 | 0.00 | 0.24 | 0.00 | 78 | 1007.8 |
| 20260504040106 | 37 | 0 | 0.0 | 0.0 | 0.00 | 0.24 | 0.00 | 77 | 1007.8 |
| 20260504034612 | 38 | 0 | 0.0 | 0.0 | 0.00 | 0.24 | 0.24 | 75 | 1007.5 |
| 20260504033054 | 38 | 0 | 0.0 | 0.0 | 0.00 | 0.24 | 0.24 | 73 | 1007.5 |
| 20260504031550 | 38 | 0 | 0.0 | 0.0 | 0.00 | 0.24 | 0.24 | 72 | 1007.4 |
| 20260504030120 | 39 | 0 | 0.0 | 0.0 | 0.00 | 0.24 | 0.24 | 70 | 1007.3 |
| 20260504024600 | 39 | 0 | 0.0 | 0.0 | 0.00 | 0.28 | 0.24 | 68 | 1007.2 |
| 20260504023055 | 40 | 0 | 0.0 | 0.0 | 0.00 | 0.28 | 0.24 | 68 | 1007.2 |
| 20260504021558 | 41 | 0 | 0.0 | 0.0 | 0.00 | 0.28 | 0.24 | 66 | 1007.3 |
| 20260504020105 | 41 | 0 | 0.0 | 0.0 | 0.00 | 0.28 | 0.24 | 65 | 1007.1 |
| 20260504014556 | 42 | 0 | 0.0 | 0.0 | 0.00 | 0.29 | 0.24 | 63 | 1007.1 |
| 20260504013056 | 43 | 0 | 0.0 | 0.9 | 0.00 | 0.29 | 0.24 | 61 | 1007.0 |
| 20260504011553 | 43 | 178 | 0.0 | 2.6 | 0.00 | 0.29 | 0.24 | 60 | 1006.8 |
| 20260504010058 | 44 | 0 | 0.0 | 0.0 | 0.00 | 0.29 | 0.24 | 57 | 1006.5 |
| 20260504004552 | 45 | 0 | 0.0 | 1.7 | 0.00 | 0.30 | 0.24 | 55 | 1006.3 |
| 20260504003056 | 45 | 0 | 0.0 | 2.6 | 0.00 | 0.30 | 0.24 | 55 | 1006.0 |
| 20260504001606 | 45 | 178 | 0.0 | 0.9 | 0.00 | 0.30 | 0.24 | 54 | 1005.9 |
| 20260504000100 | 46 | 0 | 0.0 | 2.6 | 0.00 | 0.30 | 0.24 | 53 | 1005.7 |
| 20260503234555 | 47 | 178 | 0.0 | 2.6 | 0.00 | 0.34 | 0.24 | 51 | 1005.4 |
| 20260503233100 | 48 | 178 | 0.0 | 5.2 | 0.00 | 0.34 | 0.24 | 50 | 1005.2 |